Mount Pleasant, TX

12:22 AM CDT on April 27, 2017 (GMT -0500)
Mount Pleasant

Weather History for KOSA - July, 2013

Change the Weather History Date:

Friday, July 5, 2013

  Actual Average (KGGG) Record (KGGG)
Temperature  
Mean Temperature 78 °F -  
Max Temperature 94 °F 90 °F 103 °F (1914)
Min Temperature 62 °F 71 °F 61 °F (1904)
Cooling Degree Days 12    
Growing Degree Days 28 (Base 50)    
Moisture  
Dew Point 57 °F    
Average Humidity 54    
Maximum Humidity 91    
Minimum Humidity 22    
Precipitation  
Precipitation 0.00 in - - ()
Sea Level Pressure  
Sea Level Pressure 29.99 in    
Wind  
Wind Speed 1 mph (ESE)    
Max Wind Speed 9 mph    
Max Gust Speed -    
Visibility 9 miles    
Events      
Averages and records for this station are not official NWS values.
T = Trace of Precipitation, MM = Missing Value Source: NWS Daily Summary

Daily Weather History Graph

Daily Weather History Graph

Search for Another Location

Airport or City:

Trip Planner

Search our weather history database for the weather conditions in past years. The results will help you decide how hot, cold, wet, or windy it might be!

Date:

Astronomy

Jul. 05, 2013 Rise Set
Actual Time 6:16 AM CDT 8:32 PM CDT
Civil Twilight 5:48 AM CDT 9:00 PM CDT
Nautical Twilight 5:13 AM CDT 9:35 PM CDT
Astronomical Twilight 4:35 AM CDT 10:13 PM CDT
Moon 4:13 AM CDT (7/5) 6:30 PM CDT (7/5)
Length of Visible Light 15h 12m
Length of Day
14h 15m
Waning Crescent, 6% of the Moon is Illuminated
Jul 5
Waning Crescent
Jul 8
New
Jul 15
First Quarter
Jul 22
Full
Jul 29
Last Quarter

Hourly Weather History & Observations

Time (CDT) Temp. Heat Index Dew Point Humidity Pressure Visibility Wind Dir Wind Speed Gust Speed Precip Events Conditions
12:15 AM 70.3 °F - 61.9 °F 74% 30.01 in 10.0 mi Calm Calm - N/A   Unknown
12:35 AM 67.1 °F - 62.6 °F 85% 30.01 in 7.0 mi Calm Calm - N/A   Unknown
12:55 AM 67.5 °F - 62.8 °F 85% 30.01 in 10.0 mi Calm Calm - N/A   Unknown
1:15 AM 69.6 °F - 61.3 °F 75% 30.01 in 10.0 mi Calm Calm - N/A   Unknown
1:35 AM 65.3 °F - 61.3 °F 87% 30.01 in 7.0 mi Calm Calm - N/A   Unknown
1:55 AM 65.8 °F - 61.3 °F 85% 30.00 in 10.0 mi Calm Calm - N/A   Unknown
2:15 AM 65.5 °F - 62.1 °F 89% 30.00 in 7.0 mi Calm Calm - N/A   Unknown
2:35 AM 64.8 °F - 60.8 °F 87% 29.99 in 7.0 mi Calm Calm - N/A   Unknown
2:55 AM 63.5 °F - 60.4 °F 90% 29.99 in 5.0 mi Calm Calm - N/A   Unknown
3:15 AM 64.6 °F - 61.2 °F 89% 29.99 in 10.0 mi Calm Calm - N/A   Unknown
3:35 AM 66.2 °F - 61.0 °F 83% 29.99 in 10.0 mi Calm Calm - N/A   Unknown
3:55 AM 66.7 °F - 60.8 °F 81% 30.00 in 10.0 mi Calm Calm - N/A   Unknown
4:15 AM 65.8 °F - 60.6 °F 83% 30.00 in 10.0 mi Calm Calm - N/A   Unknown
4:35 AM 64.4 °F - 60.8 °F 88% 30.00 in 7.0 mi Calm Calm - N/A   Unknown
4:55 AM 62.6 °F - 59.4 °F 89% 30.00 in 4.0 mi Calm Calm - N/A   Unknown
5:15 AM 62.8 °F - 60.1 °F 91% 30.00 in 7.0 mi Calm Calm - N/A   Unknown
5:35 AM 65.5 °F - 60.4 °F 84% 30.01 in 10.0 mi Calm Calm - N/A   Unknown
5:55 AM 63.9 °F - 59.0 °F 84% 30.02 in 10.0 mi Calm Calm - N/A   Unknown
6:15 AM 63.1 °F - 59.4 °F 87% 30.01 in 5.0 mi Calm Calm - N/A   Unknown
6:35 AM 62.6 °F - 59.5 °F 90% 30.01 in 1.5 mi Calm Calm - N/A   Unknown
6:55 AM 62.2 °F - 59.5 °F 91% 30.02 in 3.0 mi Calm Calm - N/A   Unknown
7:15 AM 63.7 °F - 60.6 °F 90% 30.02 in 5.0 mi Calm Calm - N/A   Unknown
7:35 AM 66.0 °F - 61.7 °F 86% 30.03 in 7.0 mi Calm Calm - N/A   Unknown
7:55 AM 68.0 °F - 62.8 °F 83% 30.04 in 7.0 mi Calm Calm - N/A   Unknown
8:15 AM 69.8 °F - 62.6 °F 78% 30.05 in 10.0 mi Calm Calm - N/A   Unknown
8:35 AM 71.6 °F - 63.3 °F 75% 30.05 in 10.0 mi SE 3.5 mph - N/A   Unknown
8:55 AM 74.3 °F - 63.5 °F 69% 30.05 in 10.0 mi SE 4.6 mph - N/A   Unknown
9:15 AM 78.3 °F - 61.9 °F 57% 30.05 in 10.0 mi SE 4.6 mph - N/A   Unknown
9:35 AM 80.1 °F 80.9 °F 59.7 °F 50% 30.05 in 10.0 mi Calm Calm - N/A   Unknown
9:55 AM 82.2 °F 82.3 °F 59.2 °F 45% 30.05 in 10.0 mi Calm Calm - N/A   Unknown
10:15 AM 83.8 °F 83.1 °F 57.2 °F 40% 30.04 in 10.0 mi SSE 4.6 mph - N/A   Unknown
10:35 AM 85.3 °F 83.9 °F 55.6 °F 36% 30.04 in 10.0 mi SSE 4.6 mph - N/A   Unknown
10:55 AM 87.1 °F 85.3 °F 54.7 °F 33% 30.03 in 10.0 mi South 6.9 mph - N/A   Unknown
11:15 AM 86.9 °F 85.3 °F 55.2 °F 34% 30.03 in 10.0 mi Calm Calm - N/A   Unknown
11:35 AM 88.0 °F 86.1 °F 54.9 °F 32% 30.02 in 10.0 mi Calm Calm - N/A   Unknown
11:55 AM 87.8 °F 86.1 °F 55.0 °F 33% 30.02 in 10.0 mi Calm Calm - N/A   Unknown
12:15 PM 88.2 °F 86.3 °F 54.9 °F 32% 30.02 in 7.0 mi North 3.5 mph - N/A   Unknown
12:35 PM 89.2 °F 87.3 °F 55.0 °F 31% 30.02 in 10.0 mi Calm Calm - N/A   Unknown
12:55 PM 89.6 °F 87.5 °F 54.3 °F 30% 30.02 in 10.0 mi Calm Calm - N/A   Unknown
1:15 PM 90.5 °F 88.3 °F 54.1 °F 29% 30.02 in 10.0 mi SE 3.5 mph - N/A   Unknown
1:35 PM 90.3 °F - 52.3 °F 27% 30.01 in 10.0 mi Calm Calm - N/A   Unknown
1:55 PM 90.9 °F - 51.8 °F 26% 30.00 in 10.0 mi Calm Calm - N/A   Unknown
2:15 PM 91.9 °F - 52.2 °F 26% 29.99 in 10.0 mi ENE 4.6 mph - N/A   Unknown
2:35 PM 92.3 °F - 50.4 °F 24% 29.99 in 10.0 mi East 3.5 mph - N/A   Unknown
2:55 PM 92.1 °F - 51.4 °F 25% 29.99 in 10.0 mi Calm Calm - N/A   Unknown
3:15 PM 92.7 °F - 50.4 °F 24% 29.98 in 10.0 mi Calm Calm - N/A   Unknown
3:35 PM 93.4 °F - 50.4 °F 23% 29.97 in 10.0 mi ESE 4.6 mph - N/A   Unknown
3:55 PM 93.7 °F - 50.2 °F 23% 29.96 in 10.0 mi ESE 6.9 mph - N/A   Unknown
4:15 PM 93.2 °F - 49.1 °F 22% 29.95 in 10.0 mi Calm Calm - N/A   Unknown
4:35 PM 92.7 °F - 49.6 °F 23% 29.94 in 10.0 mi East 4.6 mph - N/A   Unknown
4:55 PM 93.4 °F - 51.1 °F 24% 29.93 in 10.0 mi ESE 6.9 mph - N/A   Unknown
5:15 PM 93.6 °F - 50.9 °F 23% 29.92 in 10.0 mi East 3.5 mph - N/A   Unknown
5:35 PM 92.1 °F - 50.7 °F 24% 29.92 in 10.0 mi East 4.6 mph - N/A   Unknown
5:55 PM 92.5 °F - 50.9 °F 24% 29.92 in 10.0 mi ENE 8.1 mph - N/A   Unknown
6:15 PM 91.9 °F - 51.8 °F 25% 29.92 in 10.0 mi ENE 6.9 mph - N/A   Unknown
6:35 PM 90.7 °F - 52.9 °F 28% 29.92 in 10.0 mi ENE 9.2 mph - N/A   Unknown
6:55 PM 90.0 °F - 52.0 °F 27% 29.92 in 10.0 mi East 3.5 mph - N/A   Unknown
7:15 PM 89.1 °F - 52.9 °F 29% 29.92 in 10.0 mi East 6.9 mph - N/A   Unknown
7:35 PM 87.8 °F - 52.2 °F 29% 29.92 in 10.0 mi East 6.9 mph - N/A   Unknown
7:55 PM 85.8 °F 83.9 °F 53.1 °F 32% 29.92 in 10.0 mi Calm Calm - N/A   Unknown
8:15 PM 83.3 °F 82.2 °F 54.3 °F 37% 29.93 in 10.0 mi Calm Calm - N/A   Unknown
8:35 PM 82.2 °F 81.4 °F 54.5 °F 38% 29.93 in 10.0 mi Calm Calm - N/A   Unknown
8:55 PM 81.1 °F 80.8 °F 54.7 °F 40% 29.93 in 10.0 mi Calm Calm - N/A   Unknown
9:15 PM 80.2 °F 80.4 °F 55.8 °F 43% 29.93 in 10.0 mi Calm Calm - N/A   Unknown
9:35 PM 79.9 °F - 55.8 °F 43% 29.94 in 10.0 mi Calm Calm - N/A   Unknown
9:55 PM 79.3 °F - 56.3 °F 45% 29.95 in 10.0 mi ESE 4.6 mph - N/A   Unknown
10:15 PM 75.9 °F - 58.1 °F 54% 29.95 in 10.0 mi SE 4.6 mph - N/A   Unknown
10:35 PM 75.2 °F - 59.0 °F 57% 29.96 in 10.0 mi Calm Calm - N/A   Unknown
10:55 PM 74.7 °F - 58.3 °F 57% 29.97 in 10.0 mi Calm Calm - N/A   Unknown
11:15 PM 73.6 °F - 58.8 °F 60% 29.97 in 10.0 mi Calm Calm - N/A   Unknown
11:35 PM 73.6 °F - 58.6 °F 59% 29.98 in 10.0 mi Calm Calm - N/A   Unknown
11:55 PM 74.3 °F - 58.1 °F 57% 29.98 in 10.0 mi Calm Calm - N/A   Unknown